Погода в Новой Кулатке

Россия / Ульяновская область     52°39′08″N   47°39′22″E
темп.,
°C
ветер,
м/с
пор.,
м/с
влажн.,
%
обл.,
%
осадки,
мм/ч
давл.,
гПа
погр.,
м
20 июня, вс
вс2001:00+16зсз22825 0.0 102412
04:00+15зсз22881 0.0 102413
07:00+19сз23790 0.0 1024134
10:00+23сз23630 0.0 1024531
13:00+26сз23540 0.0 10231159
16:00+27с34510 0.0 10221359
19:00+26ссз23650 0.0 1022124
22:00+21ссв11800 0.0 102211
21 июня, пн
пн2101:00+19ссв11810 0.0 102311
04:00+18ссв11840 0.0 102311
07:00+21всв11770 0.0 1023107
10:00+25юв22665 0.0 1024734
13:00+28ююв11535 0.0 10231525
16:00+29вюв21485 0.0 10221950
19:00+27в236376 0.0 102185
22:00+22всв11676 0.0 102211
22 июня, вт
вт2201:00+20вюв00716 0.0 102311
04:00+20всв11734 0.0 102311
07:00+23всв11715 0.0 102381
10:00+27ююв22605 0.0 1023636
13:00+29юз22495 0.0 10231415
16:00+30ююз23446 0.0 10221983
19:00+29юз22590 0.0 102271
22:00+23зюз116529 0.0 102211
23 июня, ср
ср2301:00+22з116421 0.0 102211
04:00+20сз116950 0.0 102211
07:00+24сз126730 0.0 102289
10:00+27ссз235757 0.0 1022529
13:00+30ссз23476 0.0 10212315
16:00+28с235367 0.0 1021607
19:00+28ссв23631 0.0 1020125
22:00+22сз22739 0.0 102012
24 июня, чт
чт2401:00+21с22730 0.0 102012
04:00+20сз22800 0.0 102013
07:00+23сз24730 0.0 1020129
10:00+27ссз45617 0.0 1019598
13:00+29ссз445319 0.0 10191458
16:00+30ссв564818 0.0 10181986
19:00+29ссв256486 0.0 1017385
22:00+19ссв2287100 3.9 101918